Find STARLINK-37219

NORAD ID: 68843 Int'l Des: 2026-094E Owner: starlink Country: USA Constellation: starlink operational
LEOCIRCULARRETROGRADE

实时位置

正在加载3D地球...

关于 STARLINK-37219

正在加载描述...

即将过境

Passes for default location (London). Set your location on the main map for personalized predictions.

高度历史

Loading altitude history...

两行轨道根数

1 68843U 26094E 26121.83336806 -.01763390 98588-3 -27699-2 0 9996
2 68843 97.2800 135.4494 0001428 69.2453 61.1736 16.04091158 1911
Epoch: May 1, 2026 • Age: 5 hours

当前状态

高度 273.3 km
速度 7.74 km/s
星下点 -20.07°S, 81.31°E
类型 internet

Most Searched